Voltar ao catálogo

JCSAT 9

AtivoComunicaçõesGEO
NORAD 29045·PAYLOAD·🇯🇵 Japan

Lançado Apr 12, 2006 de Sea Launch Platform

Loading…

TLE

AtualizadoSource: Space-Track

Época: Sep 14, 2026, 12:43 UTC

1 29045U 06010A   26257.52998205 -.00000335  00000-0  00000-0 0  9991
2 29045   1.3330  83.0285 0001775  41.2430 192.0892  1.00273410 74664

Acompanhe JCSAT 9 em tempo real com AllMySat

Download on the App Store